Weather History for Fredericksburg, TX

Change the Weather History Date:

Saturday, May 18, 2013

  Actual Average (KSAT) Record (KSAT)
Temperature  
Mean Temperature 80 °F 78 °F  
Max Temperature 91 °F 88 °F 97 °F (1981)
Min Temperature 69 °F 68 °F 52 °F (1945)
Degree Days  
Heating Degree Days 0 0  
Month to date heating degree days 0  
Since 1 July heating degree days 1494  
Cooling Degree Days 15 12  
Month to date cooling degree days 188  
Year to date cooling degree days 447  
Growing Degree Days 30 (Base 50)    
Moisture  
Dew Point 66 °F    
Average Humidity 66    
Maximum Humidity 89    
Minimum Humidity 41    
Precipitation  
Precipitation 0.00 in 0.13 in 3.05 in (1965)
Month to date precipitation 2.17  
Year to date precipitation 10.13  
Snow  
Snow 0.00 in - - ()
Month to date snowfall  
Since 1 July snowfall  
Snow Depth -    
Sea Level Pressure  
Sea Level Pressure 29.89 in    
Wind  
Wind Speed 8 mph (South)    
Max Wind Speed 22 mph    
Max Gust Speed 31 mph    
Visibility 9 miles    
Events      
T = Trace of Precipitation, MM = Missing Value Source: NWS Daily Summary

Daily Weather History Graph

Daily Weather History Graph

Search for Another Location

Airport:

Trip Planner

Search our weather history database for the weather conditions in past years. The results will help you decide how hot, cold, wet, or windy it might be!

Date:

Astronomy

May. 18, 2013 Rise Set
Actual Time 6:39 AM CDT 8:24 PM CDT
Civil Twilight 6:13 AM CDT 8:51 PM CDT
Nautical Twilight 5:41 AM CDT 9:23 PM CDT
Astronomical Twilight 5:08 AM CDT 9:56 PM CDT
Moon 1:57 PM CDT (5/18) 2:03 AM CDT (5/18)
Length of Visible Light 14h 37m
Length of Day
13h 44m
First Quarter, 55% of the Moon is Illuminated
May 18
First Quarter
May 24
Full
May 31
Last Quarter
Jun 8
New
Jun 16
First Quarter

Hourly Weather History & Observations

Time (CDT) Temp. Heat Index Dew Point Humidity Pressure Visibility Wind Dir Wind Speed Gust Speed Precip Events Conditions
12:15 AM 76.1 °F - 70.5 °F 83% 29.92 in 7.0 mi SSE 5.8 mph - N/A   Clear
12:35 AM 75.6 °F - 70.2 °F 83% 29.93 in 7.0 mi SSE 4.6 mph - N/A   Clear
12:55 AM 74.7 °F - 69.6 °F 84% 29.92 in 7.0 mi SSE 4.6 mph - N/A   Clear
1:15 AM 74.1 °F - 68.9 °F 84% 29.93 in 7.0 mi South 3.5 mph - N/A   Clear
1:35 AM 73.4 °F - 68.0 °F 83% 29.92 in 10.0 mi South 6.9 mph - N/A   Clear
1:55 AM 72.9 °F - 67.3 °F 83% 29.91 in 10.0 mi SSE 3.5 mph - N/A   Clear
2:15 AM 72.3 °F - 66.7 °F 83% 29.91 in 10.0 mi Calm Calm - N/A   Clear
2:35 AM 72.3 °F - 66.4 °F 82% 29.91 in 10.0 mi SSE 6.9 mph - N/A   Clear
2:55 AM 71.8 °F - 66.2 °F 83% 29.91 in 10.0 mi South 5.8 mph - N/A   Clear
3:15 AM 71.6 °F - 66.0 °F 82% 29.91 in 10.0 mi South 3.5 mph - N/A   Clear
3:35 AM 70.7 °F - 65.7 °F 84% 29.91 in 10.0 mi South 6.9 mph - N/A   Clear
3:55 AM 70.3 °F - 65.7 °F 85% 29.91 in 10.0 mi South 3.5 mph - N/A   Clear
4:15 AM 69.8 °F - 65.5 °F 86% 29.91 in 10.0 mi South 4.6 mph - N/A   Clear
4:35 AM 69.4 °F - 65.5 °F 87% 29.91 in 10.0 mi South 3.5 mph - N/A   Clear
4:55 AM 69.8 °F - 65.7 °F 87% 29.91 in 10.0 mi SSE 3.5 mph - N/A   Clear
5:15 AM 69.4 °F - 65.8 °F 88% 29.91 in 10.0 mi South 5.8 mph - N/A   Clear
5:35 AM 69.6 °F - 66.0 °F 88% 29.91 in 10.0 mi South 3.5 mph - N/A   Clear
5:55 AM 69.6 °F - 65.8 °F 88% 29.91 in 10.0 mi South 5.8 mph - N/A   Clear
6:15 AM 69.6 °F - 65.8 °F 88% 29.91 in 10.0 mi South 4.6 mph - N/A   Clear
6:35 AM 69.1 °F - 65.7 °F 89% 29.92 in 10.0 mi South 3.5 mph - N/A   Clear
6:55 AM 69.3 °F - 65.8 °F 89% 29.93 in 7.0 mi SSE 5.8 mph - N/A   Clear
7:15 AM 69.4 °F - 66.2 °F 89% 29.93 in 7.0 mi Calm Calm - N/A   Clear
7:35 AM 69.8 °F - 66.4 °F 89% 29.93 in 7.0 mi SSE 5.8 mph - N/A   Clear
7:55 AM 70.2 °F - 66.7 °F 89% 29.93 in 7.0 mi SSE 4.6 mph - N/A   Clear
8:15 AM 70.9 °F - 67.1 °F 88% 29.93 in 7.0 mi South 8.1 mph - N/A   Clear
8:35 AM 71.8 °F - 67.3 °F 86% 29.94 in 7.0 mi South 9.2 mph - N/A   Clear
8:55 AM 72.9 °F - 67.3 °F 83% 29.94 in 7.0 mi South 11.5 mph 17.3 mph N/A   Scattered Clouds
9:15 AM 74.5 °F - 67.6 °F 79% 29.94 in 7.0 mi South 9.2 mph - N/A   Clear
9:35 AM 75.9 °F - 67.6 °F 75% 29.94 in 7.0 mi South 13.8 mph 18.4 mph N/A   Clear
9:55 AM 77.7 °F - 67.6 °F 71% 29.95 in 7.0 mi South 15.0 mph - N/A   Clear
10:15 AM 80.1 °F 82.4 °F 67.5 °F 65% 29.95 in 10.0 mi South 11.5 mph 18.4 mph N/A   Clear
10:35 AM 82.6 °F 85.5 °F 67.8 °F 61% 29.94 in 10.0 mi South 12.7 mph 16.1 mph N/A   Clear
10:55 AM 82.0 °F 83.4 °F 64.0 °F 54% 29.94 in 10.0 mi South 17.3 mph 25.3 mph N/A   Clear
11:15 AM 80.8 °F 82.4 °F 64.2 °F 57% 29.94 in 10.0 mi South 12.7 mph 21.9 mph N/A   Clear
11:35 AM 81.1 °F 82.8 °F 64.6 °F 57% 29.93 in 10.0 mi South 11.5 mph 18.4 mph N/A   Clear
11:55 AM 85.5 °F 87.1 °F 65.1 °F 50% 29.93 in 10.0 mi South 19.6 mph 24.2 mph N/A   Clear
12:15 PM 86.5 °F 88.1 °F 64.8 °F 48% 29.92 in 10.0 mi South 16.1 mph - N/A   Clear
12:35 PM 85.5 °F 86.6 °F 63.9 °F 48% 29.92 in 10.0 mi South 18.4 mph 26.5 mph N/A   Clear
12:55 PM 86.2 °F 87.6 °F 64.6 °F 48% 29.91 in 10.0 mi South 21.9 mph 31.1 mph N/A   Clear
1:15 PM 86.2 °F 88.2 °F 65.7 °F 50% 29.90 in 10.0 mi South 13.8 mph 21.9 mph N/A   Clear
1:35 PM 87.3 °F 89.2 °F 65.5 °F 48% 29.90 in 10.0 mi South 17.3 mph 25.3 mph N/A   Clear
2:15 PM 88.7 °F 90.8 °F 65.5 °F 46% 29.89 in 10.0 mi South 18.4 mph 25.3 mph N/A   Clear
2:35 PM 89.8 °F 91.8 °F 65.3 °F 44% 29.88 in 10.0 mi South 17.3 mph 21.9 mph N/A   Clear
2:55 PM 90.3 °F 92.2 °F 64.8 °F 43% 29.88 in 10.0 mi South 18.4 mph 25.3 mph N/A   Clear
3:15 PM 90.5 °F 92.2 °F 64.8 °F 42% 29.87 in 10.0 mi SSE 13.8 mph 25.3 mph N/A   Clear
3:35 PM 90.5 °F 92.5 °F 65.3 °F 43% 29.87 in 10.0 mi South 12.7 mph 24.2 mph N/A   Clear
3:55 PM 91.4 °F 93.6 °F 65.5 °F 42% 29.86 in 10.0 mi SSE 16.1 mph 21.9 mph N/A   Scattered Clouds
4:15 PM 91.4 °F 93.2 °F 64.8 °F 41% 29.85 in 10.0 mi South 13.8 mph 25.3 mph N/A   Clear
4:35 PM 89.6 °F 90.4 °F 63.0 °F 41% 29.85 in 10.0 mi South 17.3 mph 20.7 mph N/A   Clear
4:55 PM 88.7 °F 89.8 °F 63.5 °F 43% 29.86 in 10.0 mi South 15.0 mph 24.2 mph N/A   Clear
5:15 PM 88.3 °F 89.9 °F 64.2 °F 45% 29.86 in 10.0 mi South 17.3 mph 21.9 mph N/A   Clear
5:35 PM 87.8 °F 89.1 °F 63.9 °F 45% 29.85 in 10.0 mi South 16.1 mph 21.9 mph N/A   Clear
5:55 PM 87.3 °F 88.3 °F 63.7 °F 45% 29.85 in 10.0 mi South 13.8 mph 23.0 mph N/A   Clear
6:15 PM 86.9 °F 88.3 °F 64.4 °F 47% 29.84 in 10.0 mi South 11.5 mph 18.4 mph N/A   Clear
6:35 PM 86.5 °F 88.1 °F 64.9 °F 48% 29.84 in 10.0 mi South 12.7 mph 16.1 mph N/A   Clear
6:55 PM 87.4 °F 89.5 °F 65.3 °F 48% 29.83 in 10.0 mi South 12.7 mph 19.6 mph N/A   Clear
7:15 PM 86.5 °F 88.4 °F 65.1 °F 49% 29.83 in 10.0 mi South 16.1 mph 25.3 mph N/A   Clear
7:35 PM 85.3 °F 86.8 °F 64.9 °F 50% 29.83 in 10.0 mi SSE 11.5 mph 20.7 mph N/A   Clear
7:55 PM 83.8 °F 85.6 °F 65.3 °F 53% 29.83 in 10.0 mi SSE 12.7 mph 21.9 mph N/A   Clear
8:15 PM 82.8 °F 84.2 °F 64.0 °F 53% 29.84 in 10.0 mi SSE 12.7 mph 20.7 mph N/A   Clear
8:35 PM 81.5 °F 82.8 °F 63.1 °F 54% 29.84 in 10.0 mi SSE 10.4 mph - N/A   Clear
8:55 PM 80.6 °F 82.0 °F 63.7 °F 56% 29.85 in 10.0 mi SE 5.8 mph - N/A   Clear
9:15 PM 79.7 °F - 63.7 °F 58% 29.85 in 10.0 mi SE 5.8 mph - N/A   Clear
9:35 PM 79.0 °F - 64.8 °F 62% 29.85 in 10.0 mi SE 9.2 mph 19.6 mph N/A   Clear
9:55 PM 78.4 °F - 65.5 °F 64% 29.85 in 10.0 mi SSE 8.1 mph - N/A   Clear
10:15 PM 77.9 °F - 65.7 °F 66% 29.86 in 10.0 mi South 9.2 mph - N/A   Clear
10:35 PM 77.9 °F - 65.3 °F 65% 29.87 in 10.0 mi SSE 11.5 mph - N/A   Clear
11:15 PM 76.6 °F - 64.4 °F 66% 29.87 in 10.0 mi South 4.6 mph - N/A   Clear
11:35 PM 76.1 °F - 63.9 °F 66% 29.87 in 10.0 mi SSE 6.9 mph - N/A   Clear
11:55 PM 75.4 °F - 63.9 °F 67% 29.88 in 10.0 mi SSE 6.9 mph - N/A   Clear